EW0603 Weather Reports


time (UTC)temp
F
wind
direction
speed
knots
gust
knots
rain 1hr
in
rain 24hr
in
rain mn
in
humidity
%
barometer
mb
20260504192338 75 245 5.2 13.0 0.00 0.00 0.00 43 998.9
20260504192231 75 267 5.2 13.0 0.00 0.00 0.00 42 998.9
20260504192126 75 242 5.2 13.0 0.00 0.00 0.00 41 998.9
20260504192020 75 236 5.2 13.0 0.00 0.00 0.00 40 999.0
20260504191912 75 236 5.2 13.0 0.00 0.00 0.00 40 999.0
20260504191805 75 188 4.3 14.8 0.00 0.00 0.00 40 999.0
20260504191703 75 242 5.2 14.8 0.00 0.00 0.00 40 999.0
20260504191601 75 204 5.2 14.8 0.00 0.00 0.00 42 999.0
20260504191234 75 257 5.2 14.8 0.00 0.00 0.00 40 999.0
20260504191129 75 205 5.2 14.8 0.00 0.00 0.00 41 999.0
20260504191025 75 193 6.1 14.8 0.00 0.00 0.00 41 999.0
20260504190921 74 155 6.1 14.8 0.00 0.00 0.00 43 999.1
20260504190818 74 209 6.1 15.6 0.00 0.00 0.00 43 999.0
20260504190716 74 209 6.1 15.6 0.00 0.00 0.00 41 999.1
20260504190612 74 178 6.1 15.6 0.00 0.00 0.00 40 999.0
20260504190251 74 209 5.2 15.6 0.00 0.00 0.00 41 999.2
20260504190144 75 229 5.2 15.6 0.00 0.00 0.00 41 999.2
20260504190037 75 186 5.2 15.6 0.00 0.00 0.00 41 999.1
20260504185935 75 230 5.2 15.6 0.00 0.00 0.00 41 999.1
20260504185828 75 200 5.2 15.6 0.00 0.00 0.00 41 999.2
20260504185725 75 215 5.2 15.6 0.00 0.00 0.00 41 999.1
20260504185619 75 192 5.2 15.6 0.00 0.00 0.00 42 999.1
20260504185514 74 180 5.2 15.6 0.00 0.00 0.00 42 999.3
20260504185150 74 200 4.3 15.6 0.00 0.00 0.00 41 999.3
20260504184609 75 232 2.6 9.6 0.00 0.00 0.00 42 999.3
20260504184505 75 190 2.6 9.6 0.00 0.00 0.00 42 999.4
20260504184401 75 235 3.5 9.6 0.00 0.00 0.00 43 999.3
20260504184035 75 246 3.5 18.2 0.00 0.00 0.00 46 999.3
20260504183713 75 238 3.5 18.2 0.00 0.00 0.00 46 999.4
20260504183347 74 233 4.3 18.2 0.00 0.00 0.00 43 999.4
20260504183241 74 184 5.2 18.2 0.00 0.00 0.00 42 999.5
20260504183138 74 213 4.3 18.2 0.00 0.00 0.00 42 999.4
20260504183036 74 196 4.3 18.2 0.00 0.00 0.00 43 999.6
20260504182933 74 178 4.3 18.2 0.00 0.00 0.00 42 999.5
20260504182825 74 237 4.3 18.2 0.00 0.00 0.00 42 999.6
20260504182721 74 236 5.2 18.2 0.00 0.00 0.00 44 999.5
20260504182617 74 245 5.2 18.2 0.00 0.00 0.00 40 999.6
20260504182513 74 243 5.2 18.2 0.00 0.00 0.00 40 999.6
20260504182409 74 0 5.2 18.2 0.00 0.00 0.00 41 999.6
20260504182307 74 284 5.2 18.2 0.00 0.00 0.00 39 999.6
20260504182204 74 246 4.3 15.6 0.00 0.00 0.00 41 999.7
20260504182101 74 212 5.2 14.8 0.00 0.00 0.00 39 999.6
20260504181733 75 246 4.3 14.8 0.00 0.00 0.00 39 999.7
20260504181626 75 181 4.3 14.8 0.00 0.00 0.00 41 999.8
20260504181520 75 250 4.3 14.8 0.00 0.00 0.00 42 999.7
20260504181415 75 248 4.3 14.8 0.00 0.00 0.00 40 999.8
20260504181050 74 235 4.3 14.8 0.00 0.00 0.00 44 999.8
20260504180944 74 172 4.3 14.8 0.00 0.00 0.00 42 999.7
20260504180838 74 264 3.5 14.8 0.00 0.00 0.00 41 999.7
20260504180736 74 219 3.5 14.8 0.00 0.00 0.00 39 999.7
20260504180630 74 199 3.5 14.8 0.00 0.00 0.00 40 999.8
20260504180527 74 177 3.5 14.8 0.00 0.00 0.00 41 999.8
20260504180425 74 254 3.5 14.8 0.00 0.00 0.00 41 999.8
20260504180320 74 283 3.5 14.8 0.00 0.00 0.00 39 999.7
20260504180216 74 243 3.5 15.6 0.00 0.00 0.00 41 999.8
20260504180109 74 254 3.5 15.6 0.00 0.00 0.00 42 999.8
20260504180006 74 238 2.6 15.6 0.00 0.00 0.00 41 999.8
20260504175903 74 196 3.5 15.6 0.00 0.00 0.00 41 999.8
20260504175758 74 209 3.5 15.6 0.00 0.00 0.00 40 999.8
20260504175438 73 243 3.5 15.6 0.00 0.00 0.00 43 1000.0
20260504175336 73 235 3.5 15.6 0.00 0.00 0.00 42 1000.0
20260504175233 73 153 3.5 15.6 0.00 0.00 0.00 45 999.9
20260504174908 73 236 4.3 15.6 0.00 0.00 0.00 43 1000.0
20260504174803 73 192 4.3 15.6 0.00 0.00 0.00 44 1000.0
20260504174701 73 190 4.3 15.6 0.00 0.00 0.00 43 1000.1
20260504174340 73 241 5.2 15.6 0.00 0.00 0.00 44 1000.1
20260504174234 73 244 5.2 15.6 0.00 0.00 0.00 43 1000.2
20260504174127 73 271 5.2 12.2 0.00 0.00 0.00 43 1000.1
20260504174023 73 0 5.2 12.2 0.00 0.00 0.00 45 1000.2
20260504173917 73 249 5.2 12.2 0.00 0.00 0.00 46 1000.3
20260504173811 73 218 5.2 12.2 0.00 0.00 0.00 47 1000.3
20260504173704 73 245 5.2 12.2 0.00 0.00 0.00 44 1000.3
20260504173559 73 178 5.2 12.2 0.00 0.00 0.00 43 1000.3
20260504173453 73 181 4.3 12.2 0.00 0.00 0.00 43 1000.4
20260504173346 73 236 4.3 12.2 0.00 0.00 0.00 44 1000.4
20260504173019 73 284 3.5 12.2 0.00 0.00 0.00 44 1000.4
20260504172913 73 210 3.5 12.2 0.00 0.00 0.00 47 1000.3
20260504172808 73 215 3.5 12.2 0.00 0.00 0.00 45 1000.4
20260504172441 72 238 4.3 12.2 0.00 0.00 0.00 46 1000.4
20260504172337 72 222 4.3 12.2 0.00 0.00 0.00 46 1000.5
20260504172233 72 238 4.3 12.2 0.00 0.00 0.00 48 1000.4
20260504172126 72 220 5.2 12.2 0.00 0.00 0.00 46 1000.5
20260504171759 72 185 4.3 12.2 0.00 0.00 0.00 47 1000.6
20260504171656 72 164 4.3 12.2 0.00 0.00 0.00 46 1000.6
20260504171549 72 197 4.3 11.3 0.00 0.00 0.00 46 1000.6
20260504171228 72 185 2.6 11.3 0.00 0.00 0.00 45 1000.5
20260504171125 72 0 2.6 11.3 0.00 0.00 0.00 47 1000.5
20260504171020 72 188 3.5 11.3 0.00 0.00 0.00 48 1000.6
20260504170914 72 165 3.5 11.3 0.00 0.00 0.00 47 1000.6
20260504170550 72 190 2.6 11.3 0.00 0.00 0.00 50 1000.8
20260504170445 72 204 3.5 11.3 0.00 0.00 0.00 51 1000.8
20260504170338 72 271 3.5 11.3 0.00 0.00 0.00 49 1000.8
20260504170234 72 236 3.5 11.3 0.00 0.00 0.00 49 1000.9
20260504170126 72 226 3.5 11.3 0.00 0.00 0.00 49 1000.9
20260504160342 70 153 3.5 11.3 0.00 0.00 0.00 51 1001.6
20260504151108 67 221 1.7 10.4 0.00 0.00 0.00 59 1002.1
20260504150526 67 0 3.5 10.4 0.00 0.00 0.00 56 1002.2
20260504150421 67 234 2.6 7.8 0.00 0.00 0.00 59 1002.3
20260504150316 67 180 2.6 7.8 0.00 0.00 0.00 58 1002.1
20260504150213 66 214 2.6 7.0 0.00 0.00 0.00 58 1002.2
20260504150110 66 262 2.6 7.0 0.00 0.00 0.00 57 1002.2
20260504120309 52 182 0.0 7.0 0.00 0.00 0.00 74 1003.4
20260504120207 52 184 0.0 7.0 0.00 0.00 0.00 74 1003.4
20260504120105 52 194 0.9 7.0 0.00 0.00 0.00 74 1003.4
20260504110637 49 170 0.0 0.0 0.00 0.00 0.00 77 1003.3
20260504110530 49 170 0.0 0.0 0.00 0.00 0.00 77 1003.3
20260504110425 49 192 0.0 0.0 0.00 0.00 0.00 77 1003.2
20260504110320 49 192 0.0 0.0 0.00 0.00 0.00 77 1003.3
20260504110217 49 192 0.0 0.0 0.00 0.00 0.00 77 1003.3
20260504110113 49 198 0.0 2.6 0.00 0.00 0.00 77 1003.3
20260504100608 49 208 0.0 0.0 0.00 0.00 0.00 76 1003.0
20260504100506 49 200 0.0 0.0 0.00 0.00 0.00 76 1003.1
20260504100405 49 204 0.0 4.3 0.00 0.00 0.00 76 1003.1
20260504100301 49 219 0.0 4.3 0.00 0.00 0.00 76 1003.1
20260504100159 49 214 0.0 4.3 0.00 0.00 0.00 76 1003.1
20260504082003 50 190 0.9 5.2 0.00 0.00 0.00 75 1003.7
20260504081859 50 209 0.9 5.2 0.00 0.00 0.00 74 1003.7
20260504081754 50 199 0.9 5.2 0.00 0.00 0.00 74 1003.7
20260504081649 50 178 0.9 5.2 0.00 0.00 0.00 74 1003.8
20260504081545 50 200 0.9 5.2 0.00 0.00 0.00 74 1003.8
20260504081438 50 189 0.9 5.2 0.00 0.00 0.00 74 1003.8
20260504081334 50 183 0.9 5.2 0.00 0.00 0.00 74 1003.8
20260504081231 50 248 0.9 5.2 0.00 0.00 0.00 74 1003.8
20260504081129 50 172 1.7 5.2 0.00 0.00 0.00 74 1003.8
20260504081024 50 169 0.9 5.2 0.00 0.00 0.00 74 1003.8
20260504080920 50 213 0.9 5.2 0.00 0.00 0.00 74 1003.9
20260504080814 50 186 0.9 5.2 0.00 0.00 0.00 74 1003.8
20260504080706 50 180 0.9 5.2 0.00 0.00 0.00 74 1003.8
20260504080558 50 187 0.9 5.2 0.00 0.00 0.00 74 1003.8
20260504080232 50 178 0.0 5.2 0.00 0.00 0.00 74 1003.8
20260504080126 50 206 0.0 5.2 0.00 0.00 0.00 74 1003.8
20260504070209 50 173 1.7 7.8 0.00 0.00 0.00 74 1004.6
20260504070104 50 208 1.7 7.8 0.00 0.00 0.00 74 1004.6
20260504060206 50 185 3.5 9.6 0.00 0.00 0.00 73 1005.3
20260504050437 51 184 3.5 8.7 0.00 0.00 0.00 71 1006.1
20260504050331 51 157 3.5 8.7 0.00 0.00 0.00 71 1006.0
20260504050224 51 214 3.5 8.7 0.00 0.00 0.00 71 1006.0
20260504045639 51 198 3.5 11.3 0.00 0.00 0.00 71 1006.0
20260504045531 51 216 3.5 11.3 0.00 0.00 0.00 71 1006.0
20260504045425 51 195 3.5 11.3 0.00 0.00 0.00 71 1006.1
20260504045058 51 176 3.5 11.3 0.00 0.00 0.00 71 1006.0
20260504044951 51 249 3.5 11.3 0.00 0.00 0.00 71 1006.0
20260504044631 51 275 3.5 11.3 0.00 0.00 0.00 71 1006.1
20260504044526 51 202 3.5 11.3 0.00 0.00 0.00 71 1006.1
20260504044423 51 148 3.5 11.3 0.00 0.00 0.00 71 1006.2
20260504044317 51 184 3.5 11.3 0.00 0.00 0.00 71 1006.2
20260504044210 51 194 3.5 11.3 0.00 0.00 0.00 71 1006.1
20260504044107 51 0 3.5 11.3 0.00 0.00 0.00 71 1006.1
20260504044003 51 196 3.5 11.3 0.00 0.00 0.00 71 1006.2
20260504043856 51 196 3.5 11.3 0.00 0.00 0.00 71 1006.2
20260504043528 51 178 2.6 8.7 0.00 0.00 0.00 71 1006.2
20260504043423 51 215 2.6 8.7 0.00 0.00 0.00 71 1006.3
20260504043317 51 144 2.6 8.7 0.00 0.00 0.00 71 1006.3
20260504043213 51 200 2.6 8.7 0.00 0.00 0.00 71 1006.3
20260504043111 51 185 1.7 8.7 0.00 0.00 0.00 71 1006.3
20260504043005 51 233 1.7 8.7 0.00 0.00 0.00 71 1006.3
20260504042858 51 175 2.6 8.7 0.00 0.00 0.00 71 1006.4
20260504042751 51 199 2.6 8.7 0.00 0.00 0.00 71 1006.4
20260504042427 51 187 1.7 7.8 0.00 0.00 0.00 71 1006.4
20260504042102 51 180 2.6 7.8 0.00 0.00 0.00 71 1006.4
20260504042000 51 228 2.6 7.8 0.00 0.00 0.00 71 1006.4
20260504041854 51 159 1.7 7.8 0.00 0.00 0.00 71 1006.4
20260504041747 51 180 2.6 7.0 0.00 0.00 0.00 71 1006.4
20260504041642 51 235 2.6 7.0 0.00 0.00 0.00 71 1006.4
20260504041540 51 159 2.6 7.0 0.00 0.00 0.00 71 1006.4
20260504041436 51 188 2.6 7.0 0.00 0.00 0.00 71 1006.4
20260504041329 51 167 2.6 7.0 0.00 0.00 0.00 71 1006.5
20260504041226 51 172 2.6 7.0 0.00 0.00 0.00 71 1006.4
20260504041121 51 216 2.6 7.0 0.00 0.00 0.00 71 1006.4
20260504041015 51 174 2.6 16.5 0.00 0.00 0.00 71 1006.5
20260504040910 51 192 3.5 16.5 0.00 0.00 0.00 70 1006.5
20260504040806 51 180 3.5 16.5 0.00 0.00 0.00 70 1006.5
20260504040702 51 175 3.5 16.5 0.00 0.00 0.00 70 1006.5
20260504040335 51 175 3.5 16.5 0.00 0.00 0.00 70 1006.6
20260504040230 51 146 3.5 16.5 0.00 0.00 0.00 70 1006.6
20260504040126 51 193 3.5 16.5 0.00 0.00 0.00 70 1006.6
20260504040021 51 188 3.5 16.5 0.00 0.00 0.00 70 1006.6
20260504035914 51 180 3.5 16.5 0.00 0.00 0.00 70 1006.6
20260504035546 51 209 3.5 16.5 0.00 0.00 0.00 70 1006.6
20260504035444 51 233 3.5 16.5 0.00 0.00 0.00 70 1006.6
20260504035340 51 207 3.5 16.5 0.00 0.00 0.00 70 1006.6
20260504035234 51 155 4.3 16.5 0.00 0.00 0.00 70 1006.7
20260504035127 51 218 4.3 16.5 0.00 0.00 0.00 70 1006.6
20260504035021 51 229 3.5 13.9 0.00 0.00 0.00 70 1006.7
20260504034655 51 201 3.5 9.6 0.00 0.00 0.00 70 1006.9
20260504034553 51 185 3.5 9.6 0.00 0.00 0.00 70 1006.8
20260504034447 51 213 3.5 9.6 0.00 0.00 0.00 70 1006.7
20260504033858 51 198 2.6 7.0 0.00 0.00 0.00 70 1006.8
20260504033755 51 207 2.6 7.0 0.00 0.00 0.00 70 1006.7
20260504033653 51 177 2.6 7.0 0.00 0.00 0.00 70 1006.9
20260504033546 51 171 2.6 8.7 0.00 0.00 0.00 70 1006.9
20260504033441 51 178 2.6 8.7 0.00 0.00 0.00 70 1006.9
20260504033120 51 182 2.6 8.7 0.00 0.00 0.00 70 1007.0
20260504033017 51 184 2.6 8.7 0.00 0.00 0.00 70 1007.0
20260504032652 51 195 3.5 8.7 0.00 0.00 0.00 70 1007.0
20260504032548 51 167 3.5 10.4 0.00 0.00 0.00 70 1007.0
20260504032443 51 262 3.5 10.4 0.00 0.00 0.00 70 1007.0
20260504032335 51 158 3.5 10.4 0.00 0.00 0.00 70 1006.9
20260504032228 51 190 3.5 10.4 0.00 0.00 0.00 70 1007.0
20260504032125 51 219 3.5 10.4 0.00 0.00 0.00 70 1007.0
20260504031542 51 180 2.6 10.4 0.00 0.00 0.00 71 1007.1
20260504031437 51 194 2.6 10.4 0.00 0.00 0.00 71 1007.0
20260504031333 51 171 2.6 10.4 0.00 0.00 0.00 71 1007.1
20260504031230 51 141 2.6 10.4 0.00 0.00 0.00 71 1007.1
20260504031127 51 160 1.7 10.4 0.00 0.00 0.00 71 1007.1
20260504031024 51 188 2.6 10.4 0.00 0.00 0.00 71 1007.1
20260504030918 51 190 2.6 10.4 0.00 0.00 0.00 71 1007.1
20260504030111 50 217 2.6 8.7 0.00 0.00 0.00 71 1007.2
20260504030007 50 189 2.6 8.7 0.00 0.00 0.00 71 1007.3
20260504025901 50 182 1.7 8.7 0.00 0.00 0.00 72 1007.3
20260504025758 50 199 1.7 8.7 0.00 0.00 0.00 72 1007.3
20260504025654 50 194 1.7 8.7 0.00 0.00 0.00 72 1007.2
20260504025548 50 204 1.7 8.7 0.00 0.00 0.00 72 1007.2
20260504025442 50 141 1.7 7.8 0.00 0.00 0.00 72 1007.2
20260504025339 50 213 1.7 7.8 0.00 0.00 0.00 72 1007.3
20260504025236 50 183 1.7 7.8 0.00 0.00 0.00 72 1007.3
20260504025128 50 198 1.7 7.8 0.00 0.00 0.00 72 1007.3
20260504025021 50 218 1.7 7.8 0.00 0.00 0.00 72 1007.3
20260504024655 50 248 1.7 13.0 0.00 0.00 0.00 72 1007.4
20260504024548 50 168 2.6 13.0 0.00 0.00 0.00 72 1007.3
20260504024441 50 213 2.6 13.0 0.00 0.00 0.00 72 1007.4
20260504024117 50 213 1.7 13.0 0.00 0.00 0.00 72 1007.4
20260504024011 50 189 2.6 13.0 0.00 0.00 0.00 72 1007.4
20260504023907 50 197 2.6 13.0 0.00 0.00 0.00 72 1007.4
20260504023803 50 173 3.5 13.0 0.00 0.00 0.00 72 1007.4
20260504023438 50 257 2.6 13.0 0.00 0.00 0.00 71 1007.4
20260504022851 50 148 2.6 13.0 0.00 0.00 0.00 71 1007.3
20260504022749 50 225 3.5 7.8 0.00 0.00 0.00 71 1007.3
20260504022644 50 160 3.5 7.8 0.00 0.00 0.00 71 1007.4
20260504022541 50 213 3.5 7.8 0.00 0.00 0.00 71 1007.4
20260504022439 50 202 3.5 7.8 0.00 0.00 0.00 71 1007.4
20260504022116 50 177 2.6 7.0 0.00 0.00 0.00 72 1007.4
20260504022011 50 167 2.6 8.7 0.00 0.00 0.00 72 1007.4
20260504021906 50 174 2.6 8.7 0.00 0.00 0.00 72 1007.4
20260504021801 50 174 2.6 8.7 0.00 0.00 0.00 72 1007.4
20260504021658 50 167 2.6 8.7 0.00 0.00 0.00 72 1007.4
20260504021551 50 174 2.6 8.7 0.00 0.00 0.00 72 1007.4
20260504021448 50 188 2.6 8.7 0.00 0.00 0.00 72 1007.4
20260504021342 51 178 2.6 8.7 0.00 0.00 0.00 72 1007.4
20260504021235 50 188 2.6 8.7 0.00 0.00 0.00 72 1007.4
20260504021131 51 177 2.6 8.7 0.00 0.00 0.00 72 1007.5
20260504021029 51 201 3.5 8.7 0.00 0.00 0.00 72 1007.4
20260504020707 51 173 3.5 8.7 0.00 0.00 0.00 71 1007.4
20260504020600 51 202 3.5 8.7 0.00 0.00 0.00 71 1007.4
20260504020455 51 194 2.6 8.7 0.00 0.00 0.00 71 1007.4
20260504015910 51 196 2.6 7.0 0.00 0.00 0.00 71 1007.4
20260504015546 51 167 1.7 7.0 0.00 0.00 0.00 71 1007.4
20260504015441 51 184 1.7 7.0 0.00 0.00 0.00 71 1007.4
20260504015339 51 168 1.7 7.0 0.00 0.00 0.00 71 1007.4
20260504015014 51 180 0.9 4.3 0.00 0.00 0.00 71 1007.5
20260504014908 51 172 0.9 4.3 0.00 0.00 0.00 71 1007.5
20260504014803 51 207 1.7 4.3 0.00 0.00 0.00 71 1007.5
20260504014658 51 180 1.7 7.8 0.00 0.00 0.00 71 1007.5
20260504014556 51 181 2.6 7.8 0.00 0.00 0.00 71 1007.5
20260504014234 51 196 2.6 7.8 0.00 0.00 0.00 71 1007.5
20260504014131 51 178 2.6 7.8 0.00 0.00 0.00 71 1007.4
20260504013804 51 175 2.6 7.8 0.00 0.00 0.00 71 1007.5
20260504013659 51 182 2.6 9.6 0.00 0.00 0.00 71 1007.4
20260504013119 51 202 2.6 9.6 0.00 0.00 0.00 70 1007.4
20260504013011 51 210 2.6 9.6 0.00 0.00 0.00 70 1007.4
20260504012907 51 167 2.6 9.6 0.00 0.00 0.00 70 1007.5
20260504012320 51 169 2.6 9.6 0.00 0.00 0.00 70 1007.5
20260504012216 51 188 2.6 9.6 0.00 0.00 0.00 70 1007.4
20260504011632 51 188 1.7 7.8 0.00 0.00 0.00 70 1007.6
20260504011528 51 211 1.7 7.8 0.00 0.00 0.00 70 1007.6
20260504011424 52 188 1.7 7.8 0.00 0.00 0.00 70 1007.6
20260504011319 52 184 1.7 7.8 0.00 0.00 0.00 70 1007.6
20260504011217 52 198 1.7 7.8 0.00 0.00 0.00 70 1007.6
20260504011110 52 189 1.7 7.8 0.00 0.00 0.00 69 1007.6
20260504010748 52 184 2.6 7.8 0.00 0.00 0.00 69 1007.7
20260504010646 52 190 2.6 7.8 0.00 0.00 0.00 69 1007.7
20260504010544 52 218 2.6 7.8 0.00 0.00 0.00 69 1007.6
20260504010442 52 199 2.6 7.8 0.00 0.00 0.00 69 1007.6
20260504010339 52 210 2.6 7.8 0.00 0.00 0.00 69 1007.7
20260504010237 52 184 2.6 7.8 0.00 0.00 0.00 69 1007.6
20260504010133 52 171 2.6 7.8 0.00 0.00 0.00 69 1007.6
20260504010026 52 0 1.7 7.8 0.00 0.00 0.00 69 1007.7
20260504005656 52 228 2.6 6.1 0.00 0.00 0.00 69 1007.6
20260504005551 52 222 2.6 6.1 0.00 0.00 0.00 69 1007.7
20260504005447 52 165 2.6 6.1 0.00 0.00 0.00 68 1007.7
20260504005341 52 209 1.7 6.1 0.00 0.00 0.00 68 1007.7
20260504005235 52 221 1.7 6.1 0.00 0.00 0.00 68 1007.7
20260504004908 52 186 1.7 10.4 0.00 0.00 0.00 68 1007.8
20260504004805 52 223 1.7 10.4 0.00 0.00 0.00 68 1007.8
20260504004702 53 190 1.7 10.4 0.00 0.00 0.00 68 1007.8
20260504004556 53 199 1.7 10.4 0.00 0.00 0.00 68 1007.8
20260504004450 53 184 1.7 10.4 0.00 0.00 0.00 67 1007.8
20260504004342 53 180 2.6 10.4 0.00 0.00 0.00 67 1007.8
20260504003758 53 200 2.6 10.4 0.00 0.00 0.00 67 1007.8
20260504003216 53 163 2.6 10.4 0.00 0.00 0.00 66 1007.8
20260504003111 53 163 2.6 10.4 0.00 0.00 0.00 66 1007.9
20260504003009 53 173 1.7 8.7 0.00 0.00 0.00 66 1007.9
20260504002903 53 217 1.7 7.0 0.00 0.00 0.00 66 1007.9
20260504002756 53 196 1.7 7.0 0.00 0.00 0.00 66 1007.9
20260504002429 53 204 1.7 6.1 0.00 0.00 0.00 66 1007.9
20260504002326 54 166 1.7 6.1 0.00 0.00 0.00 66 1007.9
20260504002224 54 202 0.9 6.1 0.00 0.00 0.00 66 1007.9
20260504002122 54 177 0.9 6.1 0.00 0.00 0.00 66 1008.0
20260504002019 54 202 0.9 6.1 0.00 0.00 0.00 66 1008.0
20260504001912 54 173 0.9 6.1 0.00 0.00 0.00 66 1008.0
20260504001807 54 153 0.9 6.1 0.00 0.00 0.00 66 1008.0
20260504001703 54 202 0.9 6.1 0.00 0.00 0.00 65 1008.0
20260504001342 54 179 0.9 0.0 0.00 0.00 0.00 66 1008.0
20260504001017 54 179 1.7 8.7 0.00 0.00 0.00 66 1008.0
20260504000913 54 182 0.9 8.7 0.00 0.00 0.00 65 1008.0
20260504000810 54 234 0.9 8.7 0.00 0.00 0.00 66 1008.0
20260504000704 54 205 0.9 8.7 0.00 0.00 0.00 65 1008.0
20260504000336 54 188 1.7 8.7 0.00 0.00 0.00 65 1008.0
20260504000229 54 229 1.7 8.7 0.00 0.00 0.00 65 1008.0
20260504000121 54 223 1.7 8.7 0.00 0.00 0.00 66 1008.0
20260504000014 54 221 1.7 8.7 0.00 0.00 0.00 65 1008.1
20260503235647 54 211 1.7 8.7 0.00 0.00 0.00 65 1008.1
20260503235539 54 239 1.7 8.7 0.00 0.00 0.00 65 1008.0
20260503235432 54 194 1.7 7.8 0.00 0.00 0.00 65 1008.0
20260503235327 54 213 1.7 7.8 0.00 0.00 0.00 65 1008.0
20260503235225 54 189 1.7 7.8 0.00 0.00 0.00 65 1008.1
20260503235119 54 233 1.7 7.8 0.00 0.00 0.00 65 1008.1
20260503235014 54 229 1.7 7.8 0.00 0.00 0.00 65 1008.2
20260503234910 54 200 1.7 7.8 0.00 0.00 0.00 65 1008.1
20260503234806 54 235 2.6 7.8 0.00 0.00 0.00 65 1008.1
20260503234704 54 195 1.7 7.8 0.00 0.00 0.00 65 1008.2
20260503234558 54 223 1.7 7.8 0.00 0.00 0.00 65 1008.1
20260503234452 54 218 1.7 7.0 0.00 0.00 0.00 65 1008.2
20260503234347 54 247 1.7 7.0 0.00 0.00 0.00 65 1008.2
20260503234243 54 219 0.9 7.0 0.00 0.00 0.00 65 1008.2
20260503234137 54 251 1.7 7.0 0.00 0.00 0.00 65 1008.2
20260503234028 54 196 1.7 7.0 0.00 0.00 0.00 65 1008.2
20260503233926 54 199 1.7 7.0 0.00 0.00 0.00 65 1008.2
20260503233818 54 208 1.7 7.0 0.00 0.00 0.00 65 1008.2
20260503233715 54 178 1.7 7.0 0.00 0.00 0.00 65 1008.2
20260503233611 54 257 1.7 7.0 0.00 0.00 0.00 65 1008.2
20260503233023 55 259 2.6 7.8 0.00 0.00 0.00 64 1008.2
20260503232920 55 271 2.6 7.8 0.00 0.00 0.00 64 1008.3
20260503232555 55 255 2.6 7.8 0.00 0.00 0.00 64 1008.2
20260503232450 55 256 2.6 7.8 0.00 0.00 0.00 64 1008.3
20260503232346 55 199 2.6 7.8 0.00 0.00 0.00 63 1008.3
20260503232020 55 224 3.5 14.8 0.00 0.00 0.00 63 1008.3
20260503231701 55 181 3.5 14.8 0.00 0.00 0.00 62 1008.3
20260503231556 55 202 3.5 14.8 0.00 0.00 0.00 63 1008.4
20260503231452 55 248 3.5 14.8 0.00 0.00 0.00 62 1008.3
20260503231348 55 233 3.5 14.8 0.00 0.00 0.00 62 1008.4
20260503231242 55 267 3.5 14.8 0.00 0.00 0.00 62 1008.4
20260503231137 55 205 4.3 14.8 0.00 0.00 0.00 62 1008.4
20260503231031 55 251 4.3 14.8 0.00 0.00 0.00 62 1008.4
20260503230925 55 251 4.3 14.8 0.00 0.00 0.00 62 1008.4
20260503230823 55 223 4.3 14.8 0.00 0.00 0.00 62 1008.4
20260503230716 55 172 4.3 14.8 0.00 0.00 0.00 62 1008.5
20260503230611 55 195 4.3 14.8 0.00 0.00 0.00 62 1008.5
20260503230506 55 275 5.2 14.8 0.00 0.00 0.00 62 1008.5
20260503230143 56 208 5.2 14.8 0.00 0.00 0.00 62 1008.4
20260503230040 56 273 5.2 13.9 0.00 0.00 0.00 62 1008.6
20260503225715 56 173 5.2 13.9 0.00 0.00 0.00 62 1008.5
20260503225608 56 250 5.2 13.9 0.00 0.00 0.00 61 1008.5
20260503225503 56 219 5.2 13.9 0.00 0.00 0.00 62 1008.6
20260503225400 56 258 5.2 13.9 0.00 0.00 0.00 62 1009.0
20260503225257 56 246 5.2 13.9 0.00 0.00 0.00 62 1008.6
20260503225150 56 250 5.2 13.9 0.00 0.00 0.00 61 1008.7
20260503224825 56 185 5.2 13.9 0.00 0.00 0.00 61 1008.5
20260503224718 56 220 5.2 13.9 0.00 0.00 0.00 61 1008.5
20260503224357 57 256 4.3 12.2 0.00 0.00 0.00 60 1008.6
20260503224029 57 224 5.2 14.8 0.00 0.00 0.00 59 1008.6
20260503223922 57 249 5.2 14.8 0.00 0.00 0.00 59 1008.8
20260503223820 57 221 5.2 14.8 0.00 0.00 0.00 59 1008.7
20260503223715 57 188 6.1 14.8 0.00 0.00 0.00 59 1008.7
20260503223609 57 268 6.1 14.8 0.00 0.00 0.00 59 1008.6
20260503223505 57 267 7.0 14.8 0.00 0.00 0.00 59 1008.5
20260503223401 57 209 7.0 14.8 0.00 0.00 0.00 59 1008.3
20260503223255 58 236 7.0 14.8 0.00 0.00 0.00 59 1008.5
20260503223149 58 274 7.0 14.8 0.00 0.00 0.00 59 1008.4
20260503223044 58 229 7.0 14.8 0.00 0.00 0.00 58 1008.4
20260503222938 58 252 7.0 14.8 0.00 0.00 0.00 58 1008.4
20260503222834 58 254 7.0 14.8 0.00 0.00 0.00 57 1008.4
20260503222731 58 200 7.0 14.8 0.00 0.00 0.00 57 1008.4
20260503222626 58 218 7.0 14.8 0.00 0.00 0.00 57 1008.4
20260503222257 59 257 7.0 14.8 0.00 0.00 0.00 56 1008.3
20260503221932 59 259 7.0 19.1 0.00 0.00 0.00 55 1008.3
20260503221825 59 245 6.1 19.1 0.00 0.00 0.00 55 1008.3
20260503221722 59 290 6.1 19.1 0.00 0.00 0.00 54 1008.2
20260503220911 60 259 7.0 19.1 0.00 0.00 0.00 53 1008.3
20260503220804 60 261 7.0 19.1 0.00 0.00 0.00 53 1008.2
20260503220659 60 297 7.0 19.1 0.00 0.00 0.00 52 1008.2
20260503220557 60 268 6.1 19.1 0.00 0.00 0.00 52 1008.2
20260503220450 60 273 6.1 19.1 0.00 0.00 0.00 52 1008.2
20260503220345 60 263 6.1 19.1 0.00 0.00 0.00 52 1008.2
20260503220242 60 254 5.2 19.1 0.00 0.00 0.00 52 1008.2
20260503220139 61 243 5.2 19.1 0.00 0.00 0.00 51 1008.1
20260503220033 61 263 4.3 19.1 0.00 0.00 0.00 51 1008.1
20260503215930 61 248 4.3 13.0 0.00 0.00 0.00 50 1008.1
20260503215823 61 219 4.3 13.0 0.00 0.00 0.00 51 1008.1
20260503215458 61 239 5.2 13.0 0.00 0.00 0.00 49 1008.1
20260503215350 61 250 5.2 13.0 0.00 0.00 0.00 50 1008.0
20260503215247 61 267 5.2 13.0 0.00 0.00 0.00 51 1008.0
20260503215142 60 221 5.2 13.0 0.00 0.00 0.00 49 1008.1
20260503215040 60 246 5.2 13.0 0.00 0.00 0.00 49 1008.0
20260503214937 61 235 5.2 13.0 0.00 0.00 0.00 50 1007.9
20260503214834 61 199 5.2 13.0 0.00 0.00 0.00 48 1008.0
20260503214727 61 298 5.2 13.0 0.00 0.00 0.00 48 1008.0
20260503214141 61 256 5.2 16.5 0.00 0.00 0.00 49 1008.1
20260503213820 61 263 5.2 16.5 0.00 0.00 0.00 48 1008.0
20260503213716 61 190 5.2 16.5 0.00 0.00 0.00 48 1008.0
20260503213611 61 223 6.1 16.5 0.00 0.00 0.00 47 1008.0
20260503213504 61 224 5.2 16.5 0.00 0.00 0.00 47 1008.0
20260503213401 61 175 5.2 16.5 0.00 0.00 0.00 47 1008.0
20260503213259 61 227 5.2 16.5 0.00 0.00 0.00 48 1008.1
20260503212939 61 248 5.2 16.5 0.00 0.00 0.00 49 1008.0
20260503212835 61 227 5.2 16.5 0.00 0.00 0.00 48 1007.8
20260503212732 61 226 5.2 16.5 0.00 0.00 0.00 47 1007.9
20260503212629 61 250 4.3 16.5 0.00 0.00 0.00 48 1007.9
20260503212526 61 175 4.3 15.6 0.00 0.00 0.00 49 1008.0
20260503212419 61 226 4.3 15.6 0.00 0.00 0.00 47 1008.0
20260503212053 61 274 5.2 16.5 0.00 0.00 0.00 48 1008.1
20260503211948 61 293 5.2 16.5 0.00 0.00 0.00 48 1008.1
20260503211845 61 274 5.2 16.5 0.00 0.00 0.00 48 1008.1
20260503211741 61 223 6.1 16.5 0.00 0.00 0.00 48 1008.0
20260503211635 61 192 6.1 16.5 0.00 0.00 0.00 47 1008.1
20260503211532 61 238 6.1 16.5 0.00 0.00 0.00 48 1008.0
20260503211426 61 222 6.1 16.5 0.00 0.00 0.00 48 1008.1
20260503211323 61 236 6.1 16.5 0.00 0.00 0.00 49 1008.1
20260503211219 61 259 6.1 16.5 0.00 0.00 0.00 49 1008.1
20260503211116 61 279 6.1 16.5 0.00 0.00 0.00 47 1008.1
20260503211011 61 248 6.1 16.5 0.00 0.00 0.00 47 1008.0
20260503210909 61 262 6.1 16.5 0.00 0.00 0.00 47 1008.0
20260503210801 61 185 5.2 16.5 0.00 0.00 0.00 47 1008.2
20260503210658 61 219 5.2 16.5 0.00 0.00 0.00 47 1008.1
20260503210551 61 235 5.2 16.5 0.00 0.00 0.00 47 1008.0
20260503210444 61 234 5.2 16.5 0.00 0.00 0.00 47 1008.1
20260503210341 61 177 5.2 16.5 0.00 0.00 0.00 47 1008.1
20260503210238 61 264 4.3 16.5 0.00 0.00 0.00 47 1008.1
20260503210133 61 249 4.3 16.5 0.00 0.00 0.00 46 1008.1
20260503210032 61 263 4.3 15.6 0.00 0.00 0.00 47 1008.2
20260503205929 61 208 4.3 15.6 0.00 0.00 0.00 47 1008.2
20260503205823 61 285 4.3 15.6 0.00 0.00 0.00 46 1008.2
20260503205720 61 245 4.3 15.6 0.00 0.00 0.00 47 1008.2
20260503205618 61 221 5.2 15.6 0.00 0.00 0.00 46 1008.3
20260503205513 61 236 5.2 15.6 0.00 0.00 0.00 47 1008.2
20260503205410 61 238 5.2 15.6 0.00 0.00 0.00 46 1008.3
20260503205304 61 207 5.2 15.6 0.00 0.00 0.00 48 1008.2
20260503205200 62 163 5.2 15.6 0.00 0.00 0.00 47 1008.3
20260503205052 62 229 5.2 15.6 0.00 0.00 0.00 45 1008.2
20260503204728 62 158 5.2 15.6 0.00 0.00 0.00 45 1008.3
20260503204626 62 215 5.2 15.6 0.00 0.00 0.00 45 1008.3
20260503204517 62 261 4.3 15.6 0.00 0.00 0.00 46 1008.2
20260503204415 62 249 4.3 15.6 0.00 0.00 0.00 45 1008.3
20260503204055 62 236 4.3 12.2 0.00 0.00 0.00 45 1008.2
20260503203949 62 234 4.3 11.3 0.00 0.00 0.00 45 1008.3
20260503203844 62 234 4.3 11.3 0.00 0.00 0.00 45 1008.2
20260503203739 62 252 4.3 11.3 0.00 0.00 0.00 46 1008.3
20260503203156 62 224 6.1 16.5 0.00 0.00 0.00 43 1008.3
20260503203050 62 252 6.1 16.5 0.00 0.00 0.00 44 1008.4
20260503202945 63 250 6.1 16.5 0.00 0.00 0.00 44 1008.4
20260503202840 63 223 7.0 16.5 0.00 0.00 0.00 45 1008.4
20260503202735 63 289 6.1 16.5 0.00 0.00 0.00 44 1008.4
20260503202633 63 269 6.1 17.4 0.00 0.00 0.00 46 1008.4
20260503202525 63 288 6.1 17.4 0.00 0.00 0.00 47 1008.4
20260503202422 63 193 6.1 17.4 0.00 0.00 0.00 47 1008.3
20260503202317 63 252 6.1 17.4 0.00 0.00 0.00 45 1008.4
20260503202214 63 160 7.0 17.4 0.00 0.00 0.00 45 1008.4
20260503202108 63 259 7.0 17.4 0.00 0.00 0.00 45 1008.3
20260503202004 63 278 6.1 17.4 0.00 0.00 0.00 46 1008.4
20260503201900 63 305 6.1 17.4 0.00 0.00 0.00 44 1008.5
20260503201754 63 281 6.1 17.4 0.00 0.00 0.00 45 1008.5
20260503201650 63 168 6.1 17.4 0.00 0.00 0.00 43 1008.5
20260503201547 63 251 6.1 17.4 0.00 0.00 0.00 44 1008.5
20260503201442 63 246 7.0 17.4 0.00 0.00 0.00 44 1008.5
20260503201336 63 217 7.0 17.4 0.00 0.00 0.00 42 1008.5
20260503201233 63 266 6.1 17.4 0.00 0.00 0.00 44 1008.5
20260503201128 63 221 6.1 17.4 0.00 0.00 0.00 45 1008.6
20260503201023 63 261 5.2 17.4 0.00 0.00 0.00 45 1008.5
20260503200700 63 248 5.2 17.4 0.00 0.00 0.00 45 1008.5
20260503200337 63 223 5.2 13.9 0.00 0.00 0.00 45 1008.6
20260503200230 63 174 5.2 13.9 0.00 0.00 0.00 46 1008.6
20260503195906 63 258 5.2 17.4 0.00 0.00 0.00 44 1008.5
20260503195803 63 250 6.1 17.4 0.00 0.00 0.00 44 1008.6
20260503195657 63 218 6.1 17.4 0.00 0.00 0.00 46 1008.7
20260503195550 62 283 6.1 17.4 0.00 0.00 0.00 45 1008.6
20260503195444 62 278 6.1 17.4 0.00 0.00 0.00 48 1008.5
20260503195121 62 276 6.1 17.4 0.00 0.00 0.00 45 1008.7
20260503195014 62 245 6.1 17.4 0.00 0.00 0.00 44 1008.6
20260503194912 62 269 6.1 17.4 0.00 0.00 0.00 45 1008.7
20260503194546 62 250 4.3 17.4 0.00 0.00 0.00 46 1008.8
20260503194443 62 181 4.3 17.4 0.00 0.00 0.00 46 1008.8
20260503194335 62 206 5.2 17.4 0.00 0.00 0.00 45 1008.8
20260503194230 62 266 4.3 17.4 0.00 0.00 0.00 44 1008.7
20260503194127 62 182 4.3 17.4 0.00 0.00 0.00 44 1008.8
20260503194024 62 236 4.3 16.5 0.00 0.00 0.00 44 1008.8
20260503193922 63 265 4.3 14.8 0.00 0.00 0.00 45 1008.8
20260503193815 63 271 4.3 14.8 0.00 0.00 0.00 46 1008.9
20260503193713 63 267 4.3 14.8 0.00 0.00 0.00 44 1008.9
20260503193608 63 235 4.3 14.8 0.00 0.00 0.00 46 1008.9
20260503193502 63 244 4.3 14.8 0.00 0.00 0.00 46 1008.9
20260503193400 63 212 4.3 14.8 0.00 0.00 0.00 46 1009.0
20260503193258 63 240 4.3 14.8 0.00 0.00 0.00 48 1009.0
20260503192937 63 246 4.3 17.4 0.00 0.00 0.00 44 1009.0
20260503192833 63 234 4.3 17.4 0.00 0.00 0.00 46 1009.1
20260503192727 63 226 5.2 17.4 0.00 0.00 0.00 47 1009.1
20260503192624 63 251 5.2 17.4 0.00 0.00 0.00 45 1009.0
20260503192519 63 263 6.1 17.4 0.00 0.00 0.00 44 1009.1